Regional Weather Roundup
Issued by NWS Charleston, SC

Current Version | Previous Version | Text Only | Print | Product List | Glossary On
Versions: 1 2 3 4 5 6 7 8 9 10 11 12 13 14 15 16 17 18 19 20 21 22 23 24 25 26 27 28 29 30 31 32 33 34 35 36 37 38 39 40 41 42 43 44 45 46 47 48 49 50
000 ASUS42 KCHS 011125 RWRCHS REGIONAL WEATHER ROUNDUP NATIONAL WEATHER SERVICE CHARLESTON SC 700 AM EDT WED OCT 01 2014 NOTE: "FAIR" INDICATES FEW OR NO CLOUDS BELOW 12,000 FEET WITH NO SIGNIFICANT WEATHER AND/OR OBSTRUCTIONS TO VISIBILITY. NOT ALL STATIONS ARE QUALITY CONTROLLED BY THE NATIONAL WEATHER SERVICE. USE DATA WITH CAUTION...ESPECIALLY DEWPOINT OBSERVATIONS. SCZ027-030-031-034>040-042>050-011200- ...SOUTH CAROLINA... CITY SKY/WX TMP DP RH WIND PRES REMARKS N CHARLESTON CLEAR 64 61 90 CALM 29.93R WATERFRONT PRK N/A 70 N/A N/A N5 N/A FORT JOHNSON NOT AVBL MOUNT PLEASANT FAIR 63 63 100 CALM 29.94R FOG JOHNS ISLAND SUNNY 64 64 100 CALM 29.94R PINOPOLIS N/A 70 64 83 MISG 29.86R MONCKS CORNER PTSUNNY 61 61 100 CALM 29.94R FOG SUMMERVILLE FAIR 59 59 100 CALM 29.95R BEAUFORT MCAS CLEAR 64 62 93 CALM 29.95R FOG BEAUFORT ARPT FAIR 64 64 100 CALM 29.93R HILTON HEAD IS CLEAR 64 64 100 CALM 29.94R GEORGETOWN NOT AVBL WALTERBORO SUNNY 59 N/A N/A CALM 29.96R ORANGEBURG CLEAR 61 58 90 CALM 29.95R BARNWELL FAIR 57 57 100 CALM 29.96R AIKEN FAIR 59 59 100 CALM 30.00R MANNING FAIR 59 N/A N/A CALM 29.95R KINGSTREE NOT AVBL COLUMBIA CLEAR 60 57 89 SW3 29.95R SUMTER CLEAR 60 57 90 CALM 29.93R FLORENCE FOG 59 58 96 CALM 29.95R VSB 1 MYRTLE BEACH CLEAR 63 59 88 CALM 29.93R N MYRTLE BEACH CLEAR 62 60 93 N3 29.94R FOG $$ GAZ063-065-086>088-099>101-113>116-118-119-134-136>141-150-011200- ...GEORGIA... CITY SKY/WX TMP DP RH WIND PRES REMARKS SAVANNAH ARPT PTCLDY 65 62 90 CALM 29.94 HUNTER AAF CLEAR 64 64 100 CALM 29.93R FORT STEWART CLEAR 62 61 95 CALM 29.93R STATESBORO NOT AVBL SYLVANIA SUNNY 63 62 99 CALM 29.96R CLAXTON FAIR 63 63 100 CALM 29.95R THOMSON CLEAR 59 59 100 CALM 30.01R AUGUSTA-BUSH CLEAR 57 56 96 CALM 29.95R AUGUSTA-DANIEL CLEAR 65 62 90 NW3 29.96R SWAINSBORO FAIR 63 63 100 CALM 29.97R VIDALIA CLEAR 64 64 100 CALM 29.96R ALMA CLOUDY 67 66 97 CALM 29.94R WAYCROSS CLOUDY 71 71 100 CALM 29.94S JESUP FAIR 63 63 100 CALM 29.95R BRUNSWICK CLOUDY 70 68 94 CALM 29.95R SAINT SIMONS CLOUDY 70 67 90 N3 29.93R $$ SCZ027-028-034-036>038-045-046-048>050-GAZ119-141-011200- ...LAKE AND SUPPLEMENTAL COASTAL OBSERVATIONS... STATION/POSITION TIME TEMP WIND PRES WAVE SWELL AIR SEA DIR/SP/G HT/PER HT/PER/DIR (UTC) (F) (DEG/KT/KT) (MB) (FT/S) (FT/S/D) UPR LAKE MARION NOT AVBL WINYAH BAY 1100 65 340/ 2 1013.0S LAKE MURRAY 1000 65 CALM / 1 1013.2R ACE BASIN NERRS 1100 63 CALM 1013.0S FORT PULASKI 1100 68 310/ 4/ 5 1013.9R SAPELO ISLAND NOT AVBL $$ ANZ835-935-AMZ111-154-330-350-352-354-374-450-454-472-011200- ...C-MAN AND BUOY OBSERVATIONS... STATION/POSITION TIME TEMP WIND PRES WAVE SWELL AIR SEA DIR/SP/G HT/PER HT/PER/DIR (UTC) (F) (DEG/KT/KT) (MB) (FT/S) (FT/S/D) FOLLY BEACH CMAN 1100 67 340/ 3/ 4 1013.9R BUOY 41004 1100 77 81 10/ 8/ 10 1012.5R 3/ 7 3/ 7 BUOY 41008 1100 76 78 20/ 6/ 8 1013.4R 2/ 6 2/ 70/ 6 5E ST. MARYS GA 1100 79 N/A 3/ 8 FRYING PAN BUOY NOT AVBL BUOY 41025 1100 72 360/ 17/ 19 1011.7R 4/ 6 2/ 60/ 7 CAPE LOOKOUT NC 1100 68 10/ 10/ 13 1013.0R BUOY 41002 0958 78 80 10/ 8/ 12 1010.2 3/ 5 3/ 60/ 5 BUOY 41010 1100 81 85 30/ 4/ 6 1011.7R 4/ 7 3/ 20/ 7 BUOY 41012 NOT AVBL ST AUGUSTINE FL 1100 78 30/ 9/ 10 1013.2R CAPERS NEARSHORE 1000 69 10/ 6/ 8 N/A FRIPP NEARSHORE NOT AVBL $$

USA.gov is the U.S. government's official web portal to all federal, state and local government web resources and services.